ZKEOX NZWF-NZMF

Flight info

Callsign ZKEOX
Flight time 0h 58m
Altitude 6000
Route DCT
Aircraft C172/L-SFG/C

Departure

Time 2026-04-23 23:57
Airport Wanaka Airport (NZWF)

Arrival

Time 2026-04-24 00:56
Airport Milford Sound Airport (NZMF)
Time Latitude Longitude Altitude Speed Heading
2026-04-23 23:50 -44.72234 169.24469 1172 ft 0 kts 142°
2026-04-23 23:52 -44.72234 169.24470 1172 ft 0 kts 142°
2026-04-23 23:53 -44.72251 169.24493 1171 ft 6 kts 114°
2026-04-23 23:53 -44.72230 169.24547 1169 ft 7 kts 47°
2026-04-23 23:53 -44.72203 169.24590 1169 ft 5 kts 51°
2026-04-23 23:53 -44.72196 169.24625 1169 ft 3 kts 127°
2026-04-23 23:54 -44.72210 169.24644 1173 ft 3 kts 143°
2026-04-23 23:54 -44.72223 169.24659 1168 ft 2 kts 140°
2026-04-23 23:54 -44.72240 169.24679 1166 ft 7 kts 147°
2026-04-23 23:54 -44.72302 169.24750 1162 ft 16 kts 134°
2026-04-23 23:55 -44.72395 169.24849 1157 ft 17 kts 139°
2026-04-23 23:55 -44.72390 169.24866 1154 ft 0 kts 313°
2026-04-23 23:56 -44.72324 169.24776 1162 ft 38 kts 320°
2026-04-23 23:56 -44.72019 169.24382 1234 ft 73 kts 315°
2026-04-23 23:56 -44.71640 169.23815 1426 ft 86 kts 312°
2026-04-23 23:56 -44.71109 169.23357 1573 ft 99 kts 352°
2026-04-23 23:57 -44.70404 169.23157 1735 ft 107 kts 348°
2026-04-23 23:57 -44.69731 169.22689 1881 ft 111 kts 322°
2026-04-23 23:57 -44.69113 169.22013 2033 ft 113 kts 324°
2026-04-23 23:57 -44.68488 169.21333 2179 ft 114 kts 321°
2026-04-23 23:58 -44.68009 169.20442 2312 ft 115 kts 303°
2026-04-23 23:58 -44.67591 169.19478 2466 ft 116 kts 303°
2026-04-23 23:58 -44.67166 169.18520 2623 ft 115 kts 304°
2026-04-23 23:58 -44.66742 169.17565 2788 ft 115 kts 304°
2026-04-23 23:59 -44.66321 169.16617 2948 ft 116 kts 303°
2026-04-23 23:59 -44.65898 169.15638 3109 ft 115 kts 297°
2026-04-23 23:59 -44.65594 169.14604 3272 ft 114 kts 293°
2026-04-23 23:59 -44.65302 169.13593 3431 ft 113 kts 294°
2026-04-24 00:00 -44.65005 169.12578 3576 ft 112 kts 294°
2026-04-24 00:00 -44.64709 169.11563 3703 ft 112 kts 294°
2026-04-24 00:00 -44.64411 169.10550 3826 ft 112 kts 294°
2026-04-24 00:00 -44.64112 169.09540 3952 ft 112 kts 294°
2026-04-24 00:01 -44.63816 169.08538 4072 ft 111 kts 294°
2026-04-24 00:01 -44.63522 169.07547 4209 ft 110 kts 293°
2026-04-24 00:01 -44.63228 169.06564 4319 ft 108 kts 294°
2026-04-24 00:01 -44.62937 169.05594 4437 ft 107 kts 294°
2026-04-24 00:02 -44.62643 169.04622 4574 ft 109 kts 294°
2026-04-24 00:02 -44.62350 169.03654 4695 ft 106 kts 293°
2026-04-24 00:02 -44.62065 169.02721 4819 ft 104 kts 293°
2026-04-24 00:02 -44.61781 169.01793 4944 ft 103 kts 293°
2026-04-24 00:03 -44.61499 169.00876 5069 ft 102 kts 294°
2026-04-24 00:03 -44.61220 168.99968 5193 ft 101 kts 293°
2026-04-24 00:03 -44.60938 168.99068 5316 ft 101 kts 294°
2026-04-24 00:03 -44.60656 168.98177 5437 ft 100 kts 293°
2026-04-24 00:04 -44.60364 168.97261 5567 ft 106 kts 293°
2026-04-24 00:04 -44.60058 168.96304 5700 ft 109 kts 293°
2026-04-24 00:04 -44.59740 168.95321 5831 ft 111 kts 293°
2026-04-24 00:04 -44.59418 168.94328 5967 ft 112 kts 293°
2026-04-24 00:05 -44.59090 168.93334 6092 ft 112 kts 293°
2026-04-24 00:05 -44.58761 168.92349 6234 ft 110 kts 293°
2026-04-24 00:05 -44.58434 168.91378 6384 ft 110 kts 294°
2026-04-24 00:05 -44.57984 168.90508 6520 ft 111 kts 308°
2026-04-24 00:06 -44.57478 168.89680 6652 ft 112 kts 308°
2026-04-24 00:06 -44.56877 168.88996 6777 ft 115 kts 327°
2026-04-24 00:06 -44.56238 168.88658 6886 ft 117 kts 348°
2026-04-24 00:06 -44.55924 168.88595 6936 ft 117 kts 349°
2026-04-24 00:07 -44.55122 168.88425 7050 ft 115 kts 348°
2026-04-24 00:07 -44.54338 168.88261 7150 ft 113 kts 349°
2026-04-24 00:07 -44.53557 168.88085 7218 ft 113 kts 348°
2026-04-24 00:07 -44.52780 168.87929 7301 ft 113 kts 348°
2026-04-24 00:08 -44.52008 168.87712 7372 ft 114 kts 336°
2026-04-24 00:08 -44.51270 168.87303 7446 ft 115 kts 335°
2026-04-24 00:08 -44.50522 168.86902 7508 ft 117 kts 335°
2026-04-24 00:08 -44.49741 168.86489 7539 ft 121 kts 335°
2026-04-24 00:09 -44.48940 168.86056 7534 ft 125 kts 332°
2026-04-24 00:09 -44.48236 168.85358 7536 ft 125 kts 317°
2026-04-24 00:09 -44.47622 168.84507 7529 ft 124 kts 298°
2026-04-24 00:09 -44.47222 168.83441 7531 ft 124 kts 294°
2026-04-24 00:10 -44.46822 168.82371 7536 ft 124 kts 294°
2026-04-24 00:10 -44.46520 168.81247 7580 ft 121 kts 284°
2026-04-24 00:10 -44.46528 168.80146 7684 ft 111 kts 249°
2026-04-24 00:10 -44.46837 168.79200 7785 ft 102 kts 231°
2026-04-24 00:11 -44.47320 168.78505 7903 ft 98 kts 226°
2026-04-24 00:11 -44.47798 168.77817 8028 ft 99 kts 226°
2026-04-24 00:11 -44.48287 168.77124 8151 ft 101 kts 226°
2026-04-24 00:11 -44.48804 168.76380 8150 ft 110 kts 226°
2026-04-24 00:12 -44.49339 168.75601 8151 ft 113 kts 226°
2026-04-24 00:12 -44.49896 168.74802 8150 ft 116 kts 226°
2026-04-24 00:12 -44.50461 168.73990 8149 ft 117 kts 226°
2026-04-24 00:12 -44.51042 168.73210 8145 ft 117 kts 220°
2026-04-24 00:13 -44.51679 168.72514 8143 ft 116 kts 219°
2026-04-24 00:13 -44.52277 168.71843 8136 ft 106 kts 218°
2026-04-24 00:13 -44.52858 168.71212 8146 ft 107 kts 219°
2026-04-24 00:13 -44.53475 168.70552 8142 ft 115 kts 215°
2026-04-24 00:14 -44.54172 168.69986 8148 ft 116 kts 211°
2026-04-24 00:14 -44.54883 168.69426 8145 ft 117 kts 211°
2026-04-24 00:14 -44.55590 168.68864 8148 ft 117 kts 212°
2026-04-24 00:14 -44.56300 168.68298 8145 ft 117 kts 211°
2026-04-24 00:15 -44.57015 168.67741 8143 ft 118 kts 208°
2026-04-24 00:15 -44.57772 168.67276 8144 ft 119 kts 205°
2026-04-24 00:15 -44.58526 168.66826 8145 ft 119 kts 205°
2026-04-24 00:15 -44.59292 168.66378 8145 ft 119 kts 205°
2026-04-24 00:16 -44.60052 168.65928 8142 ft 117 kts 205°
2026-04-24 00:16 -44.60799 168.65485 8140 ft 116 kts 205°
2026-04-24 00:16 -44.61588 168.65208 8138 ft 118 kts 194°
2026-04-24 00:16 -44.62396 168.64990 8140 ft 118 kts 195°
2026-04-24 00:17 -44.63195 168.64736 8132 ft 116 kts 203°
2026-04-24 00:17 -44.63941 168.64334 8135 ft 116 kts 205°
2026-04-24 00:17 -44.64689 168.63913 8139 ft 116 kts 206°
2026-04-24 00:17 -44.65442 168.63500 8135 ft 116 kts 205°
2026-04-24 00:18 -44.66204 168.63087 8134 ft 118 kts 202°
2026-04-24 00:18 -44.67022 168.62920 8132 ft 119 kts 189°
2026-04-24 00:18 -44.67850 168.62830 8137 ft 120 kts 189°
2026-04-24 00:18 -44.68686 168.62969 8127 ft 123 kts 169°
2026-04-24 00:19 -44.69495 168.63308 8148 ft 116 kts 169°
2026-04-24 00:19 -44.70263 168.63623 8224 ft 115 kts 170°
2026-04-24 00:19 -44.71032 168.63952 8302 ft 116 kts 169°
2026-04-24 00:19 -44.71803 168.64275 8374 ft 117 kts 169°
2026-04-24 00:20 -44.72562 168.64607 8441 ft 111 kts 169°
2026-04-24 00:20 -44.73301 168.64934 8516 ft 111 kts 169°
2026-04-24 00:20 -44.74044 168.65258 8583 ft 111 kts 171°
2026-04-24 00:20 -44.74787 168.65286 8612 ft 108 kts 193°
2026-04-24 00:21 -44.75532 168.65144 8615 ft 109 kts 193°
2026-04-24 00:21 -44.76298 168.65014 8610 ft 111 kts 192°
2026-04-24 00:21 -44.77073 168.64885 8617 ft 115 kts 192°
2026-04-24 00:21 -44.77879 168.64740 8612 ft 117 kts 193°
2026-04-24 00:22 -44.78687 168.64590 8610 ft 117 kts 192°
2026-04-24 00:22 -44.79506 168.64435 8527 ft 121 kts 194°
2026-04-24 00:22 -44.80290 168.64010 8484 ft 120 kts 210°
2026-04-24 00:22 -44.81028 168.63495 8485 ft 117 kts 210°
2026-04-24 00:23 -44.81750 168.62993 8492 ft 114 kts 211°
2026-04-24 00:23 -44.82452 168.62480 8493 ft 113 kts 217°
2026-04-24 00:23 -44.83083 168.61844 8491 ft 111 kts 219°
2026-04-24 00:23 -44.83698 168.61205 8487 ft 110 kts 221°
2026-04-24 00:24 -44.84323 168.60579 8492 ft 111 kts 219°
2026-04-24 00:24 -44.84962 168.59925 8492 ft 116 kts 220°
2026-04-24 00:24 -44.85619 168.59247 8490 ft 118 kts 220°
2026-04-24 00:24 -44.86275 168.58586 8484 ft 112 kts 219°
2026-04-24 00:25 -44.86915 168.57934 8491 ft 114 kts 220°
2026-04-24 00:25 -44.87568 168.57265 8494 ft 117 kts 219°
2026-04-24 00:25 -44.88224 168.56585 8485 ft 117 kts 221°
2026-04-24 00:25 -44.88695 168.55692 8492 ft 114 kts 249°
2026-04-24 00:26 -44.88792 168.54611 8494 ft 112 kts 264°
2026-04-24 00:26 -44.88831 168.53501 8493 ft 115 kts 262°
2026-04-24 00:26 -44.88960 168.52379 8491 ft 116 kts 257°
2026-04-24 00:26 -44.89118 168.51292 8476 ft 110 kts 257°
2026-04-24 00:27 -44.89265 168.50240 8485 ft 110 kts 258°
2026-04-24 00:27 -44.89427 168.49157 8486 ft 115 kts 258°
2026-04-24 00:27 -44.89595 168.48045 8487 ft 116 kts 258°
2026-04-24 00:27 -44.89739 168.46937 8479 ft 112 kts 266°
2026-04-24 00:28 -44.89581 168.45847 8495 ft 117 kts 283°
2026-04-24 00:28 -44.89350 168.44725 8496 ft 120 kts 283°
2026-04-24 00:28 -44.89123 168.43582 8494 ft 122 kts 282°
2026-04-24 00:28 -44.88934 168.42833 8497 ft 123 kts 292°
2026-04-24 00:29 -44.88398 168.41445 8493 ft 122 kts 295°
2026-04-24 00:29 -44.87988 168.40391 8495 ft 121 kts 295°
2026-04-24 00:29 -44.87582 168.39352 8490 ft 120 kts 295°
2026-04-24 00:29 -44.87179 168.38321 8488 ft 119 kts 295°
2026-04-24 00:30 -44.86916 168.37643 8487 ft 119 kts 294°
2026-04-24 00:30 -44.86484 168.36648 8482 ft 120 kts 302°
2026-04-24 00:30 -44.85946 168.35748 8488 ft 121 kts 309°
2026-04-24 00:30 -44.85294 168.34984 8489 ft 122 kts 317°
2026-04-24 00:31 -44.84630 168.34251 8485 ft 120 kts 317°
2026-04-24 00:31 -44.83981 168.33526 8483 ft 118 kts 316°
2026-04-24 00:31 -44.83319 168.32839 8482 ft 119 kts 325°
2026-04-24 00:31 -44.82551 168.32380 8480 ft 120 kts 333°
2026-04-24 00:32 -44.81757 168.31972 8487 ft 124 kts 338°
2026-04-24 00:32 -44.80903 168.31749 8484 ft 124 kts 346°
2026-04-24 00:32 -44.80047 168.31558 8485 ft 124 kts 346°
2026-04-24 00:32 -44.79206 168.31358 8486 ft 124 kts 345°
2026-04-24 00:33 -44.78364 168.31163 8488 ft 121 kts 347°
2026-04-24 00:33 -44.77513 168.30957 8485 ft 125 kts 346°
2026-04-24 00:33 -44.76660 168.30751 8485 ft 122 kts 345°
2026-04-24 00:33 -44.75819 168.30565 8484 ft 122 kts 346°
2026-04-24 00:34 -44.74973 168.30376 8480 ft 122 kts 347°
2026-04-24 00:34 -44.74173 168.30051 8481 ft 120 kts 331°
2026-04-24 00:34 -44.73404 168.29583 8482 ft 121 kts 327°
2026-04-24 00:34 -44.72815 168.28803 8478 ft 118 kts 301°
2026-04-24 00:35 -44.72334 168.27863 8482 ft 119 kts 302°
2026-04-24 00:35 -44.71851 168.26914 8487 ft 120 kts 302°
2026-04-24 00:35 -44.71434 168.25920 8492 ft 116 kts 286°
2026-04-24 00:35 -44.71213 168.24830 8493 ft 116 kts 283°
2026-04-24 00:36 -44.70979 168.23739 8495 ft 117 kts 284°
2026-04-24 00:36 -44.70742 168.22622 8497 ft 121 kts 283°
2026-04-24 00:36 -44.70529 168.21497 8493 ft 119 kts 275°
2026-04-24 00:36 -44.70511 168.20358 8486 ft 115 kts 261°
2026-04-24 00:37 -44.70625 168.19249 8491 ft 113 kts 260°
2026-04-24 00:37 -44.70745 168.18127 8493 ft 117 kts 255°
2026-04-24 00:37 -44.71057 168.17071 8485 ft 115 kts 243°
2026-04-24 00:37 -44.71424 168.16058 8489 ft 118 kts 242°
2026-04-24 00:38 -44.71820 168.15045 8489 ft 119 kts 235°
2026-04-24 00:38 -44.72490 168.14392 8485 ft 119 kts 204°
2026-04-24 00:38 -44.73292 168.14054 8485 ft 121 kts 196°
2026-04-24 00:38 -44.74124 168.13852 8487 ft 121 kts 193°
2026-04-24 00:39 -44.74953 168.13663 8486 ft 120 kts 194°
2026-04-24 00:39 -44.75764 168.13472 8485 ft 120 kts 194°
2026-04-24 00:39 -44.76574 168.13284 8493 ft 117 kts 194°
2026-04-24 00:39 -44.77378 168.13115 8490 ft 117 kts 193°
2026-04-24 00:40 -44.78188 168.12969 8492 ft 117 kts 193°
2026-04-24 00:40 -44.78994 168.12788 8494 ft 116 kts 202°
2026-04-24 00:40 -44.79668 168.12197 8499 ft 114 kts 221°
2026-04-24 00:40 -44.80187 168.11366 8503 ft 113 kts 237°
2026-04-24 00:41 -44.80527 168.10371 8502 ft 113 kts 249°
2026-04-24 00:41 -44.80819 168.09338 8499 ft 114 kts 250°
2026-04-24 00:41 -44.80913 168.08239 8502 ft 115 kts 274°
2026-04-24 00:41 -44.80806 168.07115 8510 ft 116 kts 276°
2026-04-24 00:42 -44.80686 168.05975 8509 ft 119 kts 279°
2026-04-24 00:42 -44.80502 168.04826 8507 ft 120 kts 281°
2026-04-24 00:42 -44.80253 168.03701 8508 ft 123 kts 294°
2026-04-24 00:42 -44.79845 168.02653 8505 ft 124 kts 295°
2026-04-24 00:43 -44.79419 168.01615 8505 ft 121 kts 301°
2026-04-24 00:43 -44.78820 168.00803 8502 ft 119 kts 317°
2026-04-24 00:43 -44.78132 168.00132 8494 ft 120 kts 321°
2026-04-24 00:43 -44.77455 167.99465 8494 ft 118 kts 321°
2026-04-24 00:44 -44.76797 167.98822 8497 ft 114 kts 320°
2026-04-24 00:44 -44.76101 167.98304 8504 ft 116 kts 333°
2026-04-24 00:44 -44.75340 167.97893 8498 ft 117 kts 334°
2026-04-24 00:44 -44.74576 167.97468 8502 ft 121 kts 335°
2026-04-24 00:45 -44.73811 167.97034 8498 ft 118 kts 334°
2026-04-24 00:45 -44.73033 167.96564 8353 ft 124 kts 333°
2026-04-24 00:45 -44.72189 167.96161 8187 ft 139 kts 344°
2026-04-24 00:45 -44.71196 167.96043 7980 ft 147 kts
2026-04-24 00:46 -44.70178 167.96076 7746 ft 144 kts 349°
2026-04-24 00:46 -44.69218 167.95697 7482 ft 143 kts 330°
2026-04-24 00:46 -44.68356 167.95046 7220 ft 133 kts 328°
2026-04-24 00:46 -44.67604 167.94459 6940 ft 117 kts 329°
2026-04-24 00:47 -44.66924 167.93898 6660 ft 110 kts 327°
2026-04-24 00:47 -44.66247 167.93409 6365 ft 109 kts 337°
2026-04-24 00:47 -44.65521 167.93130 6074 ft 106 kts 344°
2026-04-24 00:47 -44.64817 167.92905 5789 ft 103 kts 344°
2026-04-24 00:48 -44.64165 167.92505 5512 ft 102 kts 324°
2026-04-24 00:48 -44.63590 167.91866 5244 ft 107 kts 316°
2026-04-24 00:48 -44.63127 167.91069 4963 ft 105 kts 306°
2026-04-24 00:48 -44.62697 167.90245 4677 ft 103 kts 305°
2026-04-24 00:49 -44.62287 167.89437 4395 ft 102 kts 304°
2026-04-24 00:49 -44.61921 167.88576 4089 ft 103 kts 298°
2026-04-24 00:49 -44.61574 167.87695 3790 ft 103 kts 299°
2026-04-24 00:49 -44.61224 167.86806 3483 ft 103 kts 299°
2026-04-24 00:50 -44.60874 167.85933 3204 ft 102 kts 299°
2026-04-24 00:50 -44.60521 167.85068 3016 ft 104 kts 295°
2026-04-24 00:50 -44.60145 167.84143 2741 ft 111 kts 286°
2026-04-24 00:50 -44.59915 167.83130 2470 ft 110 kts 287°
2026-04-24 00:51 -44.59629 167.82403 2266 ft 112 kts 298°
2026-04-24 00:51 -44.59275 167.81455 2116 ft 90 kts 267°
2026-04-24 00:51 -44.59650 167.80984 1981 ft 98 kts 185°
2026-04-24 00:51 -44.60181 167.81621 1993 ft 115 kts 111°
2026-04-24 00:52 -44.60389 167.82722 1884 ft 112 kts 113°
2026-04-24 00:52 -44.60598 167.83738 1820 ft 106 kts 114°
2026-04-24 00:52 -44.60890 167.84719 1677 ft 114 kts 123°
2026-04-24 00:52 -44.61294 167.85646 1664 ft 109 kts 127°
2026-04-24 00:53 -44.61769 167.86461 1670 ft 108 kts 134°
2026-04-24 00:53 -44.62307 167.87185 1662 ft 109 kts 140°
2026-04-24 00:53 -44.62830 167.87817 1549 ft 93 kts 142°
2026-04-24 00:53 -44.63287 167.88437 1325 ft 86 kts 138°
2026-04-24 00:54 -44.63743 167.88956 1034 ft 85 kts 148°
2026-04-24 00:54 -44.64230 167.89374 907 ft 79 kts 152°
2026-04-24 00:54 -44.64711 167.89743 802 ft 79 kts 156°
2026-04-24 00:54 -44.65217 167.90040 771 ft 81 kts 163°
2026-04-24 00:55 -44.65734 167.90342 729 ft 81 kts 157°
2026-04-24 00:55 -44.66268 167.90710 563 ft 87 kts 153°
2026-04-24 00:55 -44.66735 167.91184 326 ft 82 kts 138°
2026-04-24 00:55 -44.67085 167.91802 118 ft 74 kts 128°
2026-04-24 00:56 -44.67338 167.92296 66 ft 49 kts 127°
2026-04-24 00:56 -44.67491 167.92602 64 ft 26 kts 122°
2026-04-24 00:56 -44.67520 167.92669 65 ft 5 kts 120°
2026-04-24 00:56 -44.67536 167.92703 65 ft 4 kts 123°
2026-04-24 00:57 -44.67537 167.92740 69 ft 5 kts 40°
2026-04-24 00:57 -44.67510 167.92759 71 ft 3 kts 329°
2026-04-24 00:57 -44.67472 167.92682 71 ft 9 kts 297°
2026-04-24 00:58 -44.67442 167.92619 69 ft 6 kts 302°
2026-04-24 00:58 -44.67419 167.92576 69 ft 5 kts 307°
2026-04-24 00:58 -44.67400 167.92539 69 ft 5 kts 306°
2026-04-24 00:58 -44.67375 167.92491 69 ft 6 kts 304°
2026-04-24 00:59 -44.67361 167.92461 69 ft 0 kts 302°
2026-04-24 00:59 -44.67344 167.92428 69 ft 12 kts 303°
2026-04-24 00:59 -44.67290 167.92355 68 ft 10 kts 15°
2026-04-24 00:59 -44.67276 167.92368 68 ft 0 kts 36°